Regional Weather Roundup
Issued by NWS Bismarck, ND

Home | Current Version | Previous Version | Text Only | Print | Product List | Glossary On
Versions: 1 2 3 4 5 6 7 8 9 10 11 12 13 14 15 16 17 18 19 20 21 22 23 24 25 26 27 28 29 30 31 32 33 34 35 36 37 38 39 40 41 42 43 44 45 46 47 48 49 50
000
ASUS43 KBIS 200210
RWRBIS

NWR BROADCAST TEXT
NATIONAL WEATHER SERVICE BISMARCK ND
900 PM CDT SAT AUG 19 2017

NOTE: "FAIR" INDICATES FEW OR NO CLOUDS BELOW 12,000 FEET WITH NO
SIGNIFICANT WEATHER AND/OR OBSTRUCTIONS TO VISIBILITY.


CITY           SKY/WX    TMP DP  RH WIND       PRES   REMARKS
WILLISTON      CLOUDY    73  40  30 NW17      29.89R
MINOT          CLEAR     75  50  41 W20G25    29.79R
MINOT AFB      CLEAR     74  48  39 NW21      29.77R
BISMARCK       PTCLDY    80  54  40 NW16      29.79R
DICKINSON      PTCLDY    73  50  44 N10       29.87R
GARRISON         N/A     72  55  55 NW12G24   29.80R
HETTINGER ARPT CLOUDY    74  45  35 NW9       29.88R
JAMESTOWN      CLOUDY    70  63  78 S8        29.74S
CARRINGTON     FAIR      70  66  88 S7        29.75R
HAZEN          FAIR      73  55  53 NW10      29.83R
LINTON           N/A     70  61  73 SW7       29.79R
MANDAN         FAIR      75  54  46 NW12      29.81R
RUGBY          FAIR      72  57  60 W10       29.72R
STANLEY        FAIR      70  45  40 NW12G21   29.88R
TIOGA          FAIR      68  41  37 NW14G20   29.89R
WATFORD CITY   FAIR      72  45  37 NW8       29.88R
$$

CITY           SKY/WX    TMP DP  RH WIND       PRES   REMARKS
GRAND FORKS    CLOUDY    76  65  68 S14       29.71S
GRAND FORKS AF PTCLDY    74  62  68 S10       29.72S
DEVILS LAKE    CLEAR     76  65  68 S13       29.70R
FARGO          MOCLDY    74  64  71 S13G20    29.76R
CANDO          FAIR      72  72 100 SW9       29.71R
CAVALIER       FAIR      75  61  60 S10       29.67R
GRAFTON        FAIR      73  63  68 S13       29.71R
GWINNER        CLEAR     68  64  88 CALM      29.78R
LANGDON        FAIR      72  66  83 S12       29.69S
ROLLA          FAIR      73  55  53 NW15      29.72R
WALHALLA       FAIR      77  75  94 S9G16     29.65S
$$

CITY           SKY/WX    TMP DP  RH WIND       PRES   REMARKS
ABERDEEN       PTCLDY    70  64  81 S7        29.77R
MOBRIDGE       PTCLDY    73  63  70 N7        29.76R
BUFFALO          N/A     76  41  28 N14       29.84R
RAPID CITY     CLOUDY    78  40  25 N12       29.89R
GLASGOW        CLOUDY    72  34  24 N13       29.94R
SIDNEY         CLOUDY    72  45  37 N8        29.90R
WOLF POINT     CLEAR     74  35  24 N9        29.92R
GLENDIVE       CLEAR     72  41  32 N10       29.92R
MILES CITY     CLEAR     77  38  24 NE14      29.91R
BAKER          PTCLDY    74  40  29 NW9       29.93R
$$

CITY           SKY/WX    TMP DP  RH WIND       PRES   REMARKS
BILLINGS       PTCLDY    76  39  26 NE14      29.92R
GREAT FALLS    PTCLDY    70  37  29 E15       29.99R
ESTEVAN        CLOUDY    66  39  37 NW13      29.86R
$$





USA.gov is the U.S. government's official web portal to all federal, state and local government web resources and services.